This demonstration page uses our WeatherBlox Daily Observations layout. Learn more.

Left ArrowRight Arrow

39.51506, -84.39828

Hourly Observations for April 30, 2017

Temp ( °F °C ) Dew Point ( °F °C ) Humidity (%) Winds ( mph kmh ) Pressure ( in mb ) Visibility ( mi km ) Precip ( " mm )
12:15 am 00:15 Mostly Cloudy 62 16.6 55 13 79 79 NE 9 15 29.94 1014 7 11 0.00 0.00
12:35 am 00:35 Mostly Cloudy with Light Rain 62 16.6 56 13.1 80 80 NNW 7 11 29.97 1015 7 11 0.00 0.00
12:55 am 00:55 Mostly Cloudy 62 16.6 56 13.2 80 80 NE 7 11 29.94 1014 7 11 0.00 0.00
1:15 am 01:15 Clear 62 16.6 56 13.4 82 82 N 5 7 29.94 1014 7 11 0.00 0.00
1:35 am 01:35 Mostly Cloudy with Haze 62 16.6 56 13.5 82 82 NNE 6 9 29.94 1014 5 8 0.00 0.00
1:55 am 01:55 Mostly Cloudy with Haze 62 16.6 56 13.5 82 82 Calm 29.97 1015 5 8 0.00 0.00
2:15 am 02:15 Cloudy with Light Rain 62 16.6 56 13.5 82 82 N 8 13 29.97 1015 5 8 0.00 0.00
2:35 am 02:35 Partly Cloudy 61 16 55 12.9 82 82 NNE 7 11 29.94 1014 7 11 0.00 0.00
2:55 am 02:55 Partly Cloudy 60 15.3 54 12.2 82 82 NNE 8 13 29.94 1014 7 11 0.00 0.00
3:15 am 03:15 Partly Cloudy 60 15.3 54 12.3 82 82 N 6 9 29.94 1014 7 11 0.00 0.00
3:35 am 03:35 Partly Cloudy 60 15.3 54 12.3 82 82 NE 8 13 29.94 1014 10 16 0.00 0.00
3:55 am 03:55 Mostly Cloudy 59 14.8 53 11.8 82 82 NNE 8 13 29.97 1015 10 16 0.00 0.00
4:15 am 04:15 Mostly Cloudy 58 14.3 53 11.4 83 83 NNE 7 11 29.94 1014 7 11 0.00 0.00
4:35 am 04:35 Mostly Cloudy 58 14.2 52 11.3 83 83 N 5 7 29.97 1015 7 11 0.00 0.00
4:55 am 04:55 Partly Cloudy 57 14 52 11.1 83 83 NNE 5 7 29.97 1015 7 11 0.00 0.00
5:15 am 05:15 Partly Cloudy 57 13.8 52 11 83 83 N 3 6 29.97 1015 7 11 0.00 0.00
5:35 am 05:35 Clear 57 13.8 52 11 83 83 NNE 3 6 29.94 1014 7 11 0.00 0.00
5:55 am 05:55 Hazy 57 13.8 52 11.1 84 84 NNE 3 6 29.94 1014 5 8 0.00 0.00
6:15 am 06:15 Hazy 57 13.8 52 11.1 84 84 Calm 29.94 1014 5 8 0.00 0.00
6:35 am 06:35 Hazy 57 13.8 52 11.2 84 84 Calm 29.94 1014 4 6 0.00 0.00
6:55 am 06:55 Hazy 57 13.8 52 11.3 85 85 Calm 29.94 1014 3 5 0.00 0.00
7:15 am 07:15 Hazy 58 14.2 53 11.7 85 85 Calm 29.94 1014 3 5 0.00 0.00
7:35 am 07:35 Mostly Cloudy with Haze 60 15.3 55 12.7 85 85 Calm 29.91 1013 2 2 0.00 0.00
7:55 am 07:55 Cloudy with Haze 60 15.3 55 12.7 85 85 Calm 29.91 1013 1 2 0.00 0.00
8:15 am 08:15 Cloudy with Mist and Fog 60 15.7 56 13.2 85 85 Calm 29.91 1013 2 3 0.00 0.00
8:35 am 08:35 Hazy 62 16.5 57 13.9 85 85 Calm 29.91 1013 3 5 0.00 0.00
8:55 am 08:55 Hazy 63 17.2 58 14.6 85 85 Calm 29.91 1013 4 6 0.00 0.00
9:15 am 09:15 Hazy 67 19.5 62 16.4 82 82 Calm 29.88 1012 5 8 0.00 0.00
9:35 am 09:35 Mostly Cloudy 69 20.8 63 17.3 80 80 Calm 29.88 1012 7 11 0.00 0.00
9:55 am 09:55 Mostly Cloudy 74 23.6 66 18.7 74 74 S 7 11 29.88 1012 10 16 0.00 0.00
10:15 am 10:15 Partly Cloudy 77 25.1 66 18.9 69 69 S 15 24 29.88 1012 10 16 0.00 0.00
10:35 am 10:35 Mostly Cloudy 77 25.1 65 18.6 67 67 S 16 26 29.88 1012 10 16 0.00 0.00
10:55 am 10:55 Mostly Cloudy 77 25.1 64 17.8 64 64 S 18 30 29.88 1012 10 16 0.00 0.00
11:15 am 11:15 Mostly Cloudy 77 25.1 63 17 61 61 SSW 16 26 29.88 1012 10 16 0.00 0.00
11:35 am 11:35 Mostly Cloudy 77 25.1 62 16.7 60 60 S 20 31 29.88 1012 10 16 0.00 0.00
11:55 am 11:55 Mostly Cloudy 77 25.2 62 16.7 59 59 SSW 17 28 29.91 1013 10 16 0.00 0.00
12:15 pm 12:15 Partly Cloudy 77 25.1 62 16.6 59 59 SSW 18 30 29.91 1013 10 16 0.00 0.00
12:35 pm 12:35 Mostly Cloudy 78 25.6 62 16.9 59 59 S 12 19 29.91 1013 10 16 0.00 0.00
12:55 pm 12:55 Mostly Cloudy 80 26.5 62 16.6 55 55 SSW 20 31 29.91 1013 10 16 0.00 0.00
1:15 pm 13:15 Mostly Cloudy 77 25.2 60 15.5 55 55 SSW 22 35 29.91 1013 10 16 0.00 0.00
1:35 pm 13:35 Mostly Cloudy 79 26.1 62 16.5 56 56 SSW 14 22 29.88 1012 10 16 0.00 0.00
1:55 pm 13:55 Partly Cloudy 80 26.5 62 16.6 55 55 S 18 30 29.88 1012 10 16 0.00 0.00
2:15 pm 14:15 Sunny 80 26.5 62 16.7 55 55 SSW 13 20 29.88 1012 10 16 0.00 0.00
2:35 pm 14:35 Partly Cloudy 81 27 62 16.5 53 53 S 14 22 29.83 1010 10 16 0.00 0.00
3:00 pm 15:00 Partly Cloudy 81 27.2 62 16.5 52 52 S 13 20 29.83 1010 10 16 0.00 0.00
3:15 pm 15:15 Partly Cloudy 82 28 62 16.6 50 50 S 15 24 29.83 1010 10 16 0.00 0.00
3:35 pm 15:35 Partly Cloudy 81 27.2 60 15.8 50 50 S 16 26 29.80 1009 10 16 0.00 0.00
3:55 pm 15:55 Mostly Cloudy 81 27.2 61 15.9 50 50 S 15 24 29.80 1009 10 16 0.00 0.00
4:15 pm 16:15 Mostly Cloudy 81 27.3 61 16.1 50 50 S 15 24 29.80 1009 10 16 0.00 0.00
4:35 pm 16:35 Partly Cloudy 82 28 62 16.5 50 50 S 17 28 29.80 1009 10 16 0.00 0.00
4:55 pm 16:55 Partly Cloudy 82 28 60 15.8 47 47 S 14 22 29.80 1009 10 16 0.00 0.00
5:15 pm 17:15 Mostly Cloudy 82 28 60 15.3 46 46 S 16 26 29.80 1009 10 16 0.00 0.00
5:35 pm 17:35 Mostly Cloudy 82 27.9 59 14.9 45 45 S 17 28 29.80 1009 10 16 0.00 0.00
5:55 pm 17:55 Mostly Cloudy 81 27.2 58 14.4 45 45 S 14 22 29.80 1009 10 16 0.00 0.00
6:15 pm 18:15 Mostly Cloudy 81 27.2 59 14.8 47 47 S 13 20 29.77 1008 10 16 0.00 0.00
6:35 pm 18:35 Cloudy 81 27.2 58 14.7 46 46 S 13 20 29.77 1008 10 16 0.00 0.00
6:55 pm 18:55 Mostly Cloudy 81 27.2 58 14.7 46 46 S 10 17 29.77 1008 10 16 0.00 0.00
7:15 pm 19:15 Mostly Cloudy 81 27.2 58 14.3 45 45 S 10 17 29.77 1008 10 16 0.00 0.00
7:35 pm 19:35 Partly Cloudy 81 27 57 14.1 45 45 S 9 15 29.77 1008 10 16 0.00 0.00
8:15 pm 20:15 Partly Cloudy 81 27.2 54 12.2 39 39 S 16 26 29.74 1007 10 16 0.00 0.00
8:35 pm 20:35 Partly Cloudy 81 27.1 54 12.1 39 39 S 15 24 29.77 1008 10 16 0.00 0.00
8:55 pm 20:55 Partly Cloudy with Light Rain 80 26.7 54 12.3 41 41 SSE 18 30 29.74 1007 10 16 0.00 0.00
9:15 pm 21:15 Mostly Cloudy with Light Rain 77 25.1 56 13.1 47 47 S 20 31 29.77 1008 10 16 0.00 0.00
9:35 pm 21:35 Partly Cloudy 77 25.1 58 14.5 52 52 S 17 28 29.80 1009 10 16 0.00 0.00
9:55 pm 21:55 Partly Cloudy 74 23.6 58 14.5 57 57 SE 13 20 29.77 1008 10 16 0.00 0.00
10:15 pm 22:15 Partly Cloudy 74 23.6 59 14.8 58 58 SSE 14 22 29.77 1008 10 16 0.00 0.00
10:35 pm 22:35 Mostly Cloudy 74 23.6 60 15.6 61 61 SSE 13 20 29.77 1008 10 16 0.00 0.00
10:55 pm 22:55 Mostly Cloudy 74 23.6 60 15.5 61 61 SSE 10 17 29.74 1007 10 16 0.00 0.00
11:15 pm 23:15 Partly Cloudy 74 23.6 59 15.1 59 59 S 7 11 29.74 1007 10 16 0.00 0.00
11:35 pm 23:35 Partly Cloudy 74 23.6 59 15.2 59 59 SW 9 15 29.77 1008 10 16 0.00 0.00
11:55 pm 23:55 Partly Cloudy 73 22.7 60 15.5 64 64 S 5 7 29.77 1008 10 16 0.00 0.00

Powered by AerisWeather